Regional Weather Roundup
Issued by NWS Charleston, WV

Home | Current Version | Previous Version | Text Only | Print | Product List | Glossary Off
Versions: 1 2 3 4 5 6 7 8 9 10 11 12 13 14 15 16 17 18 19 20 21 22 23 24 25 26 27

000
ASUS41 KRLX 150610
RWRRLX
West Virginia Regional Weather Roundup
National Weather Service Charleston WV
200 AM EDT TUE APR 15 2014

Note: "fair" indicates few or no clouds below 12,000 feet with no
significant weather and/or obstructions to visibility.

WVZ003-150700-
Northern Panhandle of West Virginia

CITY           SKY/WX    TMP DP  RH WIND       PRES   REMARKS
WHEELING       MOCLDY    62  53  72 S12       29.59F
$$

WVZ009-150700-
Northwest West Virginia

CITY           SKY/WX    TMP DP  RH WIND       PRES   REMARKS
PARKERSBURG    CLOUDY    66  52  60 S8        29.63F
$$

WVZ006-150700-
Western West Virginia

CITY           SKY/WX    TMP DP  RH WIND       PRES   REMARKS
HUNTINGTON     MOCLDY    66  53  63 S9        29.64S
$$

WVZ015-150700-
West Central West Virginia

CITY           SKY/WX    TMP DP  RH WIND       PRES   REMARKS
CHARLESTON     MOCLDY    67  54  63 S8        29.64F
$$

WVZ031-150700-
North Central West Virginia

CITY           SKY/WX    TMP DP  RH WIND       PRES   REMARKS
CLARKSBURG     MOCLDY    64  52  64 S7        29.63F
MORGANTOWN     CLOUDY    68  52  56 S8G20     29.64F
$$

WVZ035-042-045-150700-
South Central West Virginia

CITY           SKY/WX    TMP DP  RH WIND       PRES   REMARKS
BECKLEY        MOCLDY    59  54  83 S9        29.73F
BLUEFIELD      MOCLDY    62  54  74 SW8G18    29.75F
LEWISBURG      CLOUDY    57  55  92 CALM      29.74F
$$

WVZ047-150700-
Northern Mountains of West Virginia

CITY           SKY/WX    TMP DP  RH WIND       PRES   REMARKS
ELKINS         MOCLDY    57  53  86 CALM      29.70F
$$

WVZ052-150700-
Eastern Panhandle of West Virginia

CITY           SKY/WX    TMP DP  RH WIND       PRES   REMARKS
MARTINSBURG    LGT RAIN  67  55  65 S7        29.72F
PETERSBURG     CLOUDY    66  63  88 S7        29.72F
$$



USA.gov is the U.S. government's official web portal to all federal, state and local government web resources and services.